Metropolis, IL

7:44 PM CST on February 09, 2016 (GMT -0600)
Metropolis

Weather History for KM30 - January, 2013

Change the Weather History Date:

Sunday, January 6, 2013

  Actual Average (KPAH) Record (KPAH)
Temperature  
Mean Temperature 32 °F 34 °F  
Max Temperature 41 °F 43 °F 68 °F (2008)
Min Temperature 22 °F 26 °F -2 °F (1970)
Degree Days  
Heating Degree Days 33 31  
Month to date heating degree days 183  
Since 1 July heating degree days 1814  
Cooling Degree Days 0 0  
Month to date cooling degree days 0  
Year to date cooling degree days 0  
Moisture  
Dew Point 30 °F    
Average Humidity 84    
Maximum Humidity 100    
Minimum Humidity 63    
Precipitation  
Precipitation 0.00 in 0.11 in 1.22 in (1991)
Month to date precipitation 0.73  
Year to date precipitation 0.73  
Snow  
Snow 0.00 in 0.00 in 4.10 in (1996)
Month to date snowfall 0.5  
Since 1 July snowfall 2.8  
Snow Depth -    
Sea Level Pressure  
Sea Level Pressure 30.26 in    
Wind  
Wind Speed 6 mph (West)    
Max Wind Speed 14 mph    
Max Gust Speed 18 mph    
Visibility 9 miles    
Events      
T = Trace of Precipitation, MM = Missing Value Source: NWS Daily Summary

Daily Weather History Graph

Daily Weather History Graph

Search for Another Location

Airport or City:

Trip Planner

Search our weather history database for the weather conditions in past years. The results will help you decide how hot, cold, wet, or windy it might be!

Date:

Astronomy

Jan. 06, 2013 Rise Set
Actual Time 7:09 AM CST 4:53 PM CST
Civil Twilight 6:40 AM CST 5:21 PM CST
Nautical Twilight 6:08 AM CST 5:54 PM CST
Astronomical Twilight 5:36 AM CST 6:25 PM CST
Moon 1:26 AM CST (1/6) 12:17 PM CST (1/6)
Length of Visible Light 10h 41m
Length of Day
9h 43m
Waning Crescent, 33% of the Moon is Illuminated
Jan 6
Waning Crescent
Jan 11
New
Jan 18
First Quarter
Jan 26
Full
Feb 3
Last Quarter

Hourly Weather History & Observations

Time (CST) Temp. Windchill Dew Point Humidity Pressure Visibility Wind Dir Wind Speed Gust Speed Precip Events Conditions
12:15 AM 39.2 °F 33.0 °F 33.1 °F 79% 30.20 in 10.0 mi SW 9.2 mph - N/A   Overcast
12:35 AM 39.4 °F 34.5 °F 33.3 °F 79% 30.20 in 10.0 mi SW 6.9 mph - N/A   Overcast
12:55 AM 39.4 °F 34.5 °F 33.8 °F 80% 30.19 in 10.0 mi SW 6.9 mph - N/A   Overcast
1:15 AM 39.6 °F 34.7 °F 34.0 °F 80% 30.19 in 10.0 mi SW 6.9 mph - N/A   Overcast
1:35 AM 39.9 °F 35.8 °F 34.7 °F 82% 30.18 in 10.0 mi SW 5.8 mph - N/A   Overcast
1:55 AM 40.3 °F 34.9 °F 35.2 °F 82% 30.18 in 10.0 mi SW 8.1 mph - N/A   Overcast
2:15 AM 39.9 °F 35.1 °F 35.2 °F 83% 30.18 in 10.0 mi WSW 6.9 mph - N/A   Overcast
2:35 AM 39.4 °F 32.7 °F 35.1 °F 84% 30.17 in 10.0 mi WSW 10.4 mph - N/A   Mostly Cloudy
2:55 AM 38.5 °F 33.4 °F 34.9 °F 87% 30.17 in 10.0 mi WSW 6.9 mph - N/A   Scattered Clouds
3:15 AM 37.6 °F 32.3 °F 35.8 °F 93% 30.16 in 10.0 mi WSW 6.9 mph - N/A   Mostly Cloudy
3:35 AM 37.0 °F 31.0 °F 36.5 °F 98% 30.16 in 10.0 mi SW 8.1 mph - N/A   Mostly Cloudy
3:55 AM 36.7 °F 30.5 °F 36.7 °F 100% 30.15 in 10.0 mi SW 8.1 mph - N/A   Scattered Clouds
4:15 AM 36.9 °F 31.4 °F 36.9 °F 100% 30.16 in 10.0 mi SW 6.9 mph - N/A   Mostly Cloudy
4:35 AM 36.5 °F 31.0 °F 36.5 °F 100% 30.15 in 7.0 mi SW 6.9 mph - N/A   Mostly Cloudy
4:55 AM 35.6 °F 32.8 °F 35.6 °F 100% 30.15 in 7.0 mi South 3.5 mph - N/A   Scattered Clouds
5:15 AM 34.2 °F 31.2 °F 34.2 °F 100% 30.15 in 5.0 mi SSW 3.5 mph - N/A   Scattered Clouds
5:35 AM 33.3 °F 30.2 °F 33.3 °F 100% 30.15 in 5.0 mi SSW 3.5 mph - N/A   Scattered Clouds
5:55 AM 33.8 °F 30.8 °F 33.8 °F 100% 30.15 in 5.0 mi SSW 3.5 mph - N/A   Clear
6:15 AM 33.3 °F 30.2 °F 33.3 °F 100% 30.16 in 5.0 mi SSW 3.5 mph - N/A   Clear
6:35 AM 34.7 °F 30.6 °F 34.7 °F 100% 30.17 in 7.0 mi WSW 4.6 mph - N/A   Clear
6:55 AM 33.8 °F 28.6 °F 33.8 °F 100% 30.17 in 7.0 mi SW 5.8 mph - N/A   Clear
7:15 AM 33.8 °F 27.7 °F 33.8 °F 100% 30.18 in 5.0 mi WSW 6.9 mph - N/A   Clear
7:35 AM 34.3 °F 28.4 °F 34.3 °F 100% 30.19 in 7.0 mi WSW 6.9 mph - N/A   Clear
7:55 AM 34.9 °F 29.9 °F 34.9 °F 100% 30.19 in 7.0 mi WSW 5.8 mph - N/A   Clear
8:15 AM 35.6 °F 30.7 °F 35.6 °F 100% 30.20 in 7.0 mi WSW 5.8 mph - N/A   Clear
8:35 AM 36.1 °F 31.4 °F 36.1 °F 100% 30.21 in 7.0 mi WSW 5.8 mph - N/A   Clear
8:55 AM 36.7 °F 31.2 °F 36.3 °F 99% 30.21 in 10.0 mi WSW 6.9 mph - N/A   Clear
9:15 AM 37.9 °F 32.7 °F 36.5 °F 95% 30.21 in 10.0 mi West 6.9 mph - N/A   Clear
9:35 AM 38.8 °F 33.2 °F 35.4 °F 88% 30.21 in 10.0 mi WSW 8.1 mph - N/A   Clear
10:15 AM 41.9 °F 36.9 °F 33.3 °F 71% 30.22 in 10.0 mi West 8.1 mph - N/A   Mostly Cloudy
10:35 AM 39.4 °F 31.4 °F 30.7 °F 71% 30.23 in 10.0 mi WNW 13.8 mph 18.4 mph N/A   Overcast
10:55 AM 38.3 °F 30.1 °F 30.4 °F 73% 30.23 in 10.0 mi WNW 13.8 mph - N/A   Overcast
11:15 AM 38.5 °F 31.1 °F 29.5 °F 70% 30.23 in 10.0 mi NW 11.5 mph - N/A   Overcast
11:35 AM 37.4 °F 30.3 °F 29.3 °F 73% 30.23 in 10.0 mi NW 10.4 mph 16.1 mph N/A   Overcast
11:55 AM 37.4 °F 28.9 °F 28.0 °F 69% 30.23 in 10.0 mi NW 13.8 mph 18.4 mph N/A   Overcast
12:15 PM 37.6 °F 30.0 °F 28.0 °F 68% 30.23 in 10.0 mi NW 11.5 mph 17.3 mph N/A   Overcast
12:35 PM 38.5 °F 30.7 °F 28.0 °F 66% 30.23 in 10.0 mi NW 12.7 mph 18.4 mph N/A   Overcast
12:55 PM 37.0 °F 31.0 °F 27.1 °F 67% 30.24 in 10.0 mi NW 8.1 mph - N/A   Overcast
1:15 PM 36.5 °F 29.2 °F 27.1 °F 69% 30.24 in 10.0 mi WNW 10.4 mph - N/A   Overcast
1:35 PM 36.5 °F 30.3 °F 27.3 °F 69% 30.26 in 10.0 mi NW 8.1 mph - N/A   Overcast
1:55 PM 36.5 °F 29.7 °F 27.1 °F 69% 30.27 in 10.0 mi NNW 9.2 mph - N/A   Overcast
2:15 PM 36.5 °F 29.7 °F 26.8 °F 68% 30.27 in 10.0 mi NNW 9.2 mph - N/A   Overcast
2:35 PM 37.2 °F 31.9 °F 26.8 °F 66% 30.28 in 10.0 mi NNW 6.9 mph - N/A   Mostly Cloudy
2:55 PM 36.7 °F 32.0 °F 26.4 °F 66% 30.29 in 10.0 mi NNW 5.8 mph - N/A   Scattered Clouds
3:15 PM 37.9 °F 32.1 °F 26.2 °F 63% 30.30 in 10.0 mi NNW 8.1 mph - N/A   Clear
3:35 PM 37.6 °F 32.3 °F 26.1 °F 63% 30.31 in 10.0 mi NNW 6.9 mph - N/A   Clear
3:55 PM 37.4 °F 33.8 °F 25.9 °F 63% 30.31 in 10.0 mi NNW 4.6 mph - N/A   Clear
4:15 PM 36.7 °F 34.1 °F 26.1 °F 65% 30.32 in 10.0 mi NNW 3.5 mph - N/A   Clear
4:35 PM 35.8 °F 33.0 °F 25.7 °F 67% 30.33 in 10.0 mi NW 3.5 mph - N/A   Clear
4:55 PM 35.1 °F - 25.7 °F 69% 30.34 in 10.0 mi Calm Calm - N/A   Clear
5:15 PM 32.4 °F - 25.7 °F 76% 30.34 in 10.0 mi Calm Calm - N/A   Clear
5:35 PM 32.0 °F - 25.7 °F 78% 30.35 in 10.0 mi Calm Calm - N/A   Clear
5:55 PM 31.3 °F - 25.5 °F 79% 30.36 in 10.0 mi Calm Calm - N/A   Clear
6:15 PM 32.0 °F - 25.7 °F 78% 30.36 in 10.0 mi Calm Calm - N/A   Clear
6:35 PM 31.8 °F - 25.5 °F 78% 30.37 in 10.0 mi Calm Calm - N/A   Clear
7:15 PM 28.9 °F - 24.6 °F 84% 30.37 in 10.0 mi Calm Calm - N/A   Clear
7:35 PM 28.9 °F - 25.5 °F 87% 30.37 in 10.0 mi Calm Calm - N/A   Clear
7:55 PM 28.4 °F - 24.4 °F 85% 30.38 in 10.0 mi Calm Calm - N/A   Clear
8:15 PM 26.2 °F - 24.3 °F 92% 30.38 in 10.0 mi Calm Calm - N/A   Clear
8:35 PM 26.4 °F - 23.9 °F 90% 30.38 in 10.0 mi Calm Calm - N/A   Clear
8:55 PM 26.1 °F - 23.2 °F 89% 30.38 in 10.0 mi Calm Calm - N/A   Clear
9:15 PM 25.5 °F - 25.5 °F 100% 30.39 in 7.0 mi Calm Calm - N/A   Clear
9:35 PM 25.7 °F - 25.7 °F 100% 30.39 in 7.0 mi Calm Calm - N/A   Clear
9:55 PM 25.3 °F - 25.3 °F 100% 30.39 in 7.0 mi Calm Calm - N/A   Clear
10:15 PM 23.9 °F - 23.9 °F 100% 30.39 in 7.0 mi Calm Calm - N/A   Clear
10:55 PM 24.1 °F - 24.1 °F 100% 30.41 in 7.0 mi Calm Calm - N/A   Clear
11:15 PM 22.8 °F - 22.8 °F 100% 30.40 in 4.0 mi Calm Calm - N/A   Clear